User: anonymous   Login
Location: Peebles
(55.6412°N, 3.1714°W)
Time: 07:56:49
(UTC+00:00)
Language:

Cosmos 2341 Rocket - Orbit

View from above orbital plane
View from above orbital plane
View from above satellite
View from above satellite

Ground track
Ground track

The orbit data is extracted from the following two-line orbital elements,

1 24773U 97017B   21337.17252881  .00000048  00000-0  35333-4 0  9990
2 24773  82.9227 245.3453 0025770  88.4073  18.2706 13.73669889234678
Epoch (UTC): 03 December 2021 04:08:26
Eccentricity: 0.0025770
inclination: 82.9227°
perigee height: 967 km
apogee height: 1005 km
right ascension of ascending node: 245.3453°
argument of perigee: 88.4073°
revolutions per day: 13.73669889
mean anomaly at epoch: 18.2706°
orbit number at epoch: 23467

The dashed part of the orbit path shows where the satellite is in the earth's shadow,  

DLR